Tracking 19246 objects as of 19-Aug-2018
HD Live streaming from Space Station
objects crossing your sky now

COSMOS 2131

Track COSMOS 2131 now!
10-day predictions
COSMOS 2131 is classified as:


NORAD ID: 21106
Int'l Code: 1991-009G
Perigee: 1,393.9 km
Apogee: 1,475.3 km
Inclination: 74.0 °
Period: 114.4 minutes
Semi major axis: 7805 km
RCS: 0.6789 m2 (medium)
Launch date: February 12, 1991
Source: Commonwealth of Independent States (former USSR) (CIS)
Launch site: PLESETSK MISSILE AND SPACE COMPLEX (PKMTR)
aabbcc
Your satellite tracking list
Your tracking list is empty




NASA's NSSDC Master Catalog

Two Line Element Set (TLE):
1 21106U 91009G   18231.47360106 -.00000023 +00000-0 -36280-4 0  9991
2 21106 074.0301 293.4160 0052168 217.4841 245.1024 12.58912488264492
Source of the keplerian elements: AFSPC